STARLINK-32504, 62024

Orbit data source: Space-Track

STARLINK-32504, 62024 is a payload satellite owned by SpaceX/Seattle (US) in LEO that was launched on Mon, 18 Nov 2024 UTC via an FALCON 9 launch vehicle from the Air Force Western Test Range (AFWTR). Payload-class satellites include a variety of spacecraft equipped with specific instruments for various scientific and technological missions. These include communications satellites like Starlink; space stations such as the ISS; scientific satellites like the Hubble; Earth observation satellites from companies like Planet Labs, Umbra, and HawkEye 360; GPS; miniature CubeSats for education and research; and military/defense satellites.

Loading next visibility...
Identifier
62024, 2024-213S
Orbit
LEO
Country
Flag of USUS
Related business
Manufacturer
SpaceX/Seattle
Mission
Operational Commercial Communications
Bus & Motor
STARLINK V2M, Unknown motor
Mass
730 kg wet, ~700 kg dry
Launch date (UTC)
2024-11-18 (2 years ago)
Launch vehicle
FALCON 9
Launch site
Air Force Western Test Range (AFWTR)
Object type
Payload
Rocket body
Debris
Shape & HBR
Box + 2 Pan, 17.7 m
Radar Cross Section
33.884 m², Large (>1 m²)

Expand to show TLE details & history
Last TLE update: 21 hours ago

TLE from 21 hours ago
0 STARLINK-32504
1 62024U 24213S   26170.95499913  .00024244  00000-0  82749-3 0  9990
2 62024  53.1580  53.0084 0000764  89.6357 270.4731 15.30219882 88811
Epoch: 2026-06-19T22:55Z
TLE epoch observation values (Epoch: 2026-06-19T22:55:11.924Z)
Latitude
-0.00006°
Longitude
161.03211°
Altitude
476.051 km
Speed
7.629 km/s
True Right ascension
03h 32m 02s
True Declination
0° 00' 00"
Sunlit
Object was in daylight at epoch
Visualization orbit readout
Latitude
Unknown
Longitude
Unknown
Altitude
Unknown
Speed
Unknown
Apparent Right ascension
Unknown
Apparent Declination
Unknown
Sunlit
N/A
Visualization observer readout
Local Sidereal Time
07:18:34
Azimuth
Unknown
Elevation
Unknown
Doppler factor
Unknown
Orbital elements
Apogee altitude
475.936 km
Perigee altitude
474.889 km
Semi-major axis
6,853.549 km
Eccentricity
0.00008
Inclination
53.158°
RAAN
53.0084°
Arg. of periapsis
89.6357°
True anomaly
270.46435°
Mean anomaly
270.4731°
Eccentric anomaly
270.46872°
Mean motion
3.82534 °/min
Orbital period
94.11 mins
BSTAR
0.00082749
Loading maneuver chart data...
Computing Atmospheric mass density...
Loading historical data...
Loading historical data...
Loading historical data...
Loading historical data...
Loading historical data...
Loading historical data...
Loading historical data...

Documentation

Showing up to 5 results
|